G1 CYXU-CYXU

Flight info

Callsign G1
Flight time N/A
Altitude 36000
Route DERLO Q935 HOCKE DCT MBS/N0393F160 V133 TVC/N0466F360 DCT PLN DCT SAW DCT SSM/N0389F170 V300 YVV/N0460F380 DCT DERLO
Aircraft A310/H-SDFGHIM1RTUWXY/LB1

Departure

Time 2026-05-05 22:40
Airport London International Airport (CYXU)

Arrival

Time N/A
Airport London International Airport (CYXU)
Time Latitude Longitude Altitude Speed Heading
2026-05-05 22:23 43.03547 -81.16512 907 ft 0 kts 334°
2026-05-05 22:31 43.03552 -81.16514 907 ft 13 kts 342°
2026-05-05 22:32 43.03610 -81.16412 909 ft 20 kts 78°
2026-05-05 22:32 43.03614 -81.16380 909 ft 14 kts 86°
2026-05-05 22:32 43.03636 -81.16213 908 ft 16 kts 78°
2026-05-05 22:32 43.03651 -81.16112 907 ft 0 kts 80°
2026-05-05 22:33 43.03655 -81.16082 907 ft 9 kts 80°
2026-05-05 22:33 43.03660 -81.16041 907 ft 17 kts 79°
2026-05-05 22:33 43.03666 -81.15997 907 ft 23 kts 79°
2026-05-05 22:34 43.03696 -81.15798 905 ft 15 kts 78°
2026-05-05 22:34 43.03706 -81.15684 906 ft 9 kts 84°
2026-05-05 22:34 43.03657 -81.15634 906 ft 11 kts 141°
2026-05-05 22:34 43.03606 -81.15577 906 ft 17 kts 140°
2026-05-05 22:35 43.03511 -81.15464 908 ft 15 kts 139°
2026-05-05 22:35 43.03446 -81.15384 909 ft 10 kts 137°
2026-05-05 22:35 43.03380 -81.15303 908 ft 23 kts 138°
2026-05-05 22:35 43.03201 -81.15091 906 ft 34 kts 139°
2026-05-05 22:36 43.03068 -81.14932 905 ft 21 kts 139°
2026-05-05 22:36 43.02969 -81.14812 903 ft 17 kts 139°
2026-05-05 22:36 43.02905 -81.14734 905 ft 11 kts 139°
2026-05-05 22:36 43.02845 -81.14660 905 ft 10 kts 139°
2026-05-05 22:37 43.02757 -81.14554 906 ft 19 kts 138°
2026-05-05 22:37 43.02664 -81.14443 908 ft 24 kts 139°
2026-05-05 22:37 43.02544 -81.14300 906 ft 19 kts 139°
2026-05-05 22:37 43.02457 -81.14186 904 ft 16 kts 136°
2026-05-05 22:38 43.02383 -81.14104 903 ft 12 kts 141°
2026-05-05 22:38 43.02333 -81.14047 903 ft 7 kts 139°
2026-05-05 22:38 43.02310 -81.13998 904 ft 8 kts 89°
2026-05-05 22:38 43.02342 -81.13924 903 ft 0 kts 46°
2026-05-05 22:39 43.02358 -81.13901 903 ft 24 kts 49°
2026-05-05 22:39 43.02442 -81.13863 904 ft 16 kts 335°
2026-05-05 22:40 43.02855 -81.14358 940 ft 251 kts 318°
2026-05-05 22:40 43.04965 -81.16946 3287 ft 519 kts 315°
2026-05-05 22:40 43.07809 -81.20354 7972 ft 555 kts 315°
2026-05-05 22:40 43.10651 -81.23691 14242 ft 532 kts 315°
2026-05-05 22:41 43.13611 -81.26819 19445 ft 554 kts 329°
2026-05-05 22:41 43.17458 -81.27244 23921 ft 575 kts 12°
2026-05-05 22:41 43.20943 -81.24691 28087 ft 599 kts 47°
2026-05-05 22:41 43.23232 -81.19974 31781 ft 595 kts 58°
2026-05-05 22:42 43.25136 -81.14853 35010 ft 607 kts 61°
2026-05-05 22:42 43.26865 -81.09774 38629 ft 571 kts 68°
2026-05-05 22:42 43.28344 -81.04485 37338 ft 605 kts 66°
2026-05-05 22:42 43.30164 -80.98656 29324 ft 790 kts 63°
2026-05-05 22:43 43.32942 -80.90827 25914 ft 996 kts 63°
2026-05-05 22:43 43.36070 -80.82008 29025 ft 1094 kts 63°
2026-05-05 22:43 43.39665 -80.71891 31350 ft 1284 kts 63°
2026-05-05 22:43 43.44086 -80.59500 33976 ft 1638 kts 63°
2026-05-05 22:44 43.49940 -80.42994 45637 ft 2089 kts 63°
2026-05-05 22:44 43.57641 -80.21381 61255 ft 2790 kts 63°
2026-05-05 22:44 43.66914 -79.95377 79151 ft 3415 kts 63°
2026-05-05 22:44 43.79497 -79.60157 0 ft 4790 kts 63°
2026-05-05 22:45 43.96125 -79.13663 0 ft 5809 kts 63°
2026-05-05 22:45 44.14255 -78.62931 0 ft 5880 kts 63°
2026-05-05 22:45 44.32474 -78.11833 0 ft 5879 kts 63°
2026-05-05 22:45 44.50649 -77.60624 0 ft 5878 kts 63°
2026-05-05 22:46 44.68560 -77.09924 0 ft 5879 kts 63°
2026-05-05 22:46 44.86559 -76.58778 0 ft 5671 kts 63°
2026-05-05 22:46 45.03598 -76.10079 0 ft 5481 kts 63°
2026-05-05 22:46 45.20447 -75.61648 0 ft 5480 kts 64°
2026-05-05 22:47 45.37252 -75.13053 0 ft 5478 kts 64°
2026-05-05 22:47 45.54215 -74.63804 0 ft 5785 kts 64°
2026-05-05 22:47 45.72214 -74.11409 0 ft 5897 kts 64°
2026-05-05 22:47 45.90296 -73.58684 0 ft 5897 kts 64°
2026-05-05 22:48 46.08399 -73.05709 0 ft 5900 kts 64°
2026-05-05 22:48 46.26476 -72.52624 0 ft 5904 kts 64°
2026-05-05 22:48 46.44155 -72.00516 0 ft 5493 kts 64°
2026-05-05 22:48 46.60927 -71.50907 0 ft 5469 kts 64°
2026-05-05 22:49 46.67768 -71.30624 0 ft 5478 kts 64°
2026-05-05 22:49 46.85498 -70.77989 0 ft 5889 kts 64°
2026-05-05 22:49 47.03576 -70.24242 0 ft 5892 kts 64°
2026-05-05 22:49 47.21657 -69.70254 0 ft 5892 kts 64°
2026-05-05 22:50 47.39645 -69.16095 0 ft 5872 kts 64°
2026-05-05 22:50 47.57548 -68.61954 0 ft 5864 kts 64°
2026-05-05 22:50 47.75448 -68.07621 0 ft 5846 kts 64°
2026-05-05 22:50 47.93312 -67.53200 0 ft 5859 kts 64°
2026-05-05 22:51 48.11225 -66.98446 0 ft 5869 kts 64°
2026-05-05 22:51 48.29126 -66.43543 0 ft 5865 kts 64°
2026-05-05 22:51 48.47042 -65.88411 0 ft 5854 kts 64°
2026-05-05 22:51 48.64670 -65.33967 0 ft 5846 kts 64°
2026-05-05 22:52 48.82505 -64.78668 0 ft 5857 kts 64°
2026-05-05 22:52 49.00422 -64.22913 0 ft 5881 kts 64°
2026-05-05 22:52 49.18371 -63.66846 0 ft 5876 kts 64°
2026-05-05 22:52 49.36262 -63.10708 0 ft 5859 kts 64°
2026-05-05 22:53 49.54116 -62.54350 0 ft 5870 kts 64°
2026-05-05 22:53 49.71931 -61.97651 0 ft 5877 kts 64°
2026-05-05 22:53 49.89748 -61.40639 0 ft 5883 kts 64°
2026-05-05 22:53 50.07583 -60.83330 0 ft 5896 kts 64°
2026-05-05 22:54 50.25402 -60.25805 0 ft 5896 kts 64°
2026-05-05 22:54 50.43215 -59.68024 0 ft 5890 kts 64°
2026-05-05 22:54 50.60348 -59.12214 0 ft 5711 kts 64°
2026-05-05 22:54 50.77992 -58.54579 0 ft 5887 kts 64°
2026-05-05 22:55 50.95600 -57.96894 0 ft 5741 kts 64°
2026-05-05 22:55 51.12544 -57.40587 0 ft 5726 kts 64°
2026-05-05 22:55 51.28913 -56.82781 0 ft 5700 kts 66°
2026-05-05 22:55 51.44991 -56.24784 0 ft 5731 kts 66°
2026-05-05 22:56 51.61036 -55.66235 0 ft 5731 kts 66°
2026-05-05 22:56 51.76868 -55.07039 0 ft 5774 kts 66°
2026-05-05 22:56 51.92099 -54.46594 0 ft 5825 kts 68°
2026-05-05 22:56 52.06566 -53.84819 0 ft 5886 kts 69°
2026-05-05 22:57 52.19423 -53.21518 0 ft 5894 kts 73°
2026-05-05 22:57 52.31178 -52.57500 0 ft 5896 kts 73°
2026-05-05 22:57 52.42882 -51.93214 0 ft 5893 kts 73°
2026-05-05 22:57 52.54471 -51.28668 0 ft 5898 kts 73°
2026-05-05 22:58 52.65852 -50.64791 0 ft 5900 kts 73°
2026-05-05 22:58 52.77385 -49.99853 0 ft 5900 kts 73°
2026-05-05 22:58 52.88914 -49.34741 0 ft 5900 kts 73°
2026-05-05 22:58 53.00431 -48.69520 0 ft 5901 kts 73°
2026-05-05 22:59 53.11965 -48.04023 0 ft 5893 kts 73°
2026-05-05 22:59 53.23482 -47.38438 0 ft 5898 kts 73°
2026-05-05 22:59 53.35007 -46.72635 0 ft 5899 kts 73°
2026-05-05 22:59 53.46531 -46.06661 0 ft 5897 kts 73°
2026-05-05 23:00 53.69610 -44.74082 0 ft 5895 kts 73°
2026-05-05 23:00 53.81143 -44.07623 0 ft 5893 kts 73°
2026-05-05 23:00 53.92521 -43.41886 0 ft 5891 kts 73°
2026-05-05 23:01 54.04038 -42.75171 0 ft 5879 kts 73°
2026-05-05 23:01 54.15550 -42.08295 0 ft 5887 kts 73°
2026-05-05 23:01 54.27058 -41.41245 0 ft 5887 kts 73°
2026-05-05 23:01 54.38577 -40.73945 0 ft 5886 kts 73°
2026-05-05 23:02 54.50107 -40.06401 0 ft 5884 kts 73°
2026-05-05 23:02 54.61612 -39.38821 0 ft 5870 kts 73°
2026-05-05 23:02 54.73111 -38.71097 0 ft 5870 kts 73°
2026-05-05 23:02 54.84607 -38.03202 0 ft 5879 kts 73°
2026-05-05 23:03 54.96104 -37.35115 0 ft 5870 kts 73°
2026-05-05 23:03 55.07603 -36.66834 0 ft 5865 kts 73°
2026-05-05 23:03 55.19098 -35.98410 0 ft 5881 kts 73°
2026-05-05 23:03 55.30632 -35.29563 0 ft 5881 kts 73°
2026-05-05 23:04 55.42128 -34.60743 0 ft 5867 kts 73°
2026-05-05 23:04 55.53631 -33.91675 0 ft 5878 kts 73°
2026-05-05 23:04 55.65153 -33.22261 0 ft 5876 kts 73°
2026-05-05 23:04 55.76653 -32.52733 0 ft 5875 kts 73°
2026-05-05 23:05 55.88148 -31.83013 0 ft 5874 kts 73°
2026-05-05 23:05 55.99751 -31.13201 0 ft 5873 kts 73°
2026-05-05 23:05 56.12135 -30.43532 0 ft 5870 kts 72°
2026-05-05 23:05 56.25433 -29.74357 0 ft 5866 kts 70°
2026-05-05 23:06 56.39560 -29.05501 0 ft 5849 kts 69°
2026-05-05 23:06 56.53782 -28.36577 0 ft 5853 kts 69°
2026-05-05 23:06 56.68257 -27.68536 0 ft 5854 kts 68°
2026-05-05 23:06 56.84371 -27.00327 0 ft 5852 kts 65°
2026-05-05 23:07 57.01645 -26.32862 0 ft 5851 kts 64°
2026-05-05 23:07 57.19801 -25.66053 0 ft 5849 kts 63°
2026-05-05 23:07 57.39046 -24.99711 0 ft 5848 kts 61°
2026-05-05 23:07 57.59302 -24.34037 0 ft 5851 kts 59°
2026-05-05 23:08 57.80181 -23.70056 0 ft 5598 kts 58°
2026-05-05 23:08 58.00746 -23.09218 0 ft 5584 kts 57°
2026-05-05 23:08 58.22666 -22.45477 0 ft 5802 kts 56°
2026-05-05 23:08 58.45108 -21.81633 0 ft 5791 kts 56°
2026-05-05 23:09 58.67755 -21.18690 0 ft 5819 kts 55°
2026-05-05 23:09 58.91168 -20.55065 0 ft 5828 kts 54°
2026-05-05 23:09 59.14176 -19.93026 0 ft 5443 kts 54°
2026-05-05 23:09 59.36532 -19.33489 0 ft 5426 kts 53°
2026-05-05 23:10 59.58909 -18.74098 0 ft 5386 kts 53°
2026-05-05 23:10 59.81319 -18.14566 0 ft 5400 kts 53°
2026-05-05 23:10 59.86506 -18.00770 0 ft 5401 kts 53°
2026-05-05 23:10 60.04516 -17.52812 0 ft 5384 kts 53°
2026-05-05 23:11 60.12579 -17.31326 0 ft 5386 kts 53°
2026-05-05 23:11 61.92728 -12.37547 0 ft 5403 kts 52°
2026-05-05 23:11 63.96784 -6.32876 97892 ft 5718 kts 53°
2026-05-05 23:12 66.12058 0.67958 0 ft 5457 kts 54°
2026-05-05 23:12 66.24769 1.11960 0 ft 5449 kts 54°
2026-05-05 23:12 68.16770 8.16270 0 ft 5759 kts 55°
2026-05-05 23:13 68.71255 10.31415 0 ft 5384 kts 56°
2026-05-05 23:13 69.43802 13.28750 0 ft 5387 kts 56°
2026-05-05 23:13 70.29426 16.86625 0 ft 5393 kts 54°
2026-05-05 23:13 71.21687 20.46485 0 ft 5396 kts 51°
2026-05-05 23:14 72.34070 24.93303 0 ft 5432 kts 51°
2026-05-05 23:14 73.28518 28.94129 0 ft 5437 kts 51°
2026-05-05 23:14 73.53955 30.06178 0 ft 5436 kts 51°
2026-05-05 23:14 74.93326 36.57365 0 ft 5444 kts 52°
2026-05-05 23:15 75.85968 41.32607 0 ft 5444 kts 52°
2026-05-05 23:15 76.75909 46.30185 0 ft 5199 kts 52°
2026-05-05 23:15 77.63366 51.47196 0 ft 5207 kts 52°
2026-05-05 23:15 78.52480 57.12702 0 ft 5435 kts 53°
2026-05-05 23:16 79.43982 63.42020 0 ft 5401 kts 53°
2026-05-05 23:16 80.34221 70.17250 0 ft 5324 kts 53°
2026-05-05 23:16 81.21636 77.35146 0 ft 5040 kts 53°
2026-05-05 23:16 81.90439 85.66746 0 ft 5037 kts 67°
2026-05-05 23:17 82.21768 95.68124 0 ft 5399 kts 85°
2026-05-05 23:17 82.01029 106.48427 0 ft 5380 kts 108°
2026-05-05 23:17 81.41524 116.05703 0 ft 5429 kts 114°
2026-05-05 23:17 80.75044 124.79574 0 ft 5427 kts 118°
2026-05-05 23:18 80.00776 132.64952 0 ft 5408 kts 120°
2026-05-05 23:18 79.61390 136.54878 0 ft 5404 kts 120°
2026-05-05 23:18 79.42909 138.34422 0 ft 5400 kts 119°
2026-05-05 23:18 79.24701 140.12423 0 ft 5396 kts 118°
2026-05-05 23:19 79.06667 141.87014 0 ft 5392 kts 118°
2026-05-05 23:19 78.88572 143.58497 0 ft 5395 kts 119°
2026-05-05 23:19 78.70360 145.27016 0 ft 5396 kts 119°
2026-05-05 23:19 78.06957 150.87223 0 ft 5391 kts 120°
2026-05-05 23:20 77.31720 156.95026 0 ft 5402 kts 120°
2026-05-05 23:20 76.57653 162.40949 0 ft 5442 kts 121°
2026-05-05 23:20 76.37444 163.77726 0 ft 5443 kts 122°
2026-05-05 23:20 76.16511 165.10646 0 ft 5444 kts 124°
2026-05-05 23:21 75.94722 166.38946 0 ft 5445 kts 126°
2026-05-05 23:21 75.71936 167.62302 0 ft 5445 kts 127°
2026-05-05 23:21 75.48143 168.80840 0 ft 5446 kts 129°
2026-05-05 23:21 75.23432 169.94479 0 ft 5447 kts 131°
2026-05-05 23:22 74.97789 171.02780 0 ft 5448 kts 133°
2026-05-05 23:22 74.71194 172.05965 0 ft 5449 kts 135°
2026-05-05 23:22 74.43758 173.04230 0 ft 5449 kts 136°
2026-05-05 23:22 74.16070 173.97257 0 ft 5450 kts 138°
2026-05-05 23:23 73.87592 174.88075 0 ft 5451 kts 139°
2026-05-05 23:23 73.59060 175.77047 0 ft 5452 kts 139°
2026-05-05 23:23 73.30474 176.64487 0 ft 5452 kts 139°
2026-05-05 23:23 73.01866 177.50450 0 ft 5452 kts 139°
2026-05-05 23:24 72.73453 178.35522 0 ft 5453 kts 139°
2026-05-05 23:24 72.45300 179.20333 0 ft 5453 kts 138°
2026-05-05 23:24 72.17140 -179.95776 0 ft 5453 kts 138°
2026-05-05 23:24 71.89081 -179.13131 0 ft 5454 kts 137°
2026-05-05 23:25 71.61059 -178.31730 0 ft 5454 kts 137°
2026-05-05 23:25 71.32820 -177.51755 0 ft 5454 kts 138°
2026-05-05 23:25 71.04461 -176.73857 0 ft 5454 kts 138°
2026-05-05 23:25 70.76371 -175.98046 0 ft 5454 kts 139°
2026-05-05 23:26 70.47845 -175.22753 0 ft 5451 kts 139°
2026-05-05 23:26 70.19325 -174.48939 0 ft 5440 kts 139°
2026-05-05 23:26 69.90746 -173.76134 0 ft 5453 kts 139°
2026-05-05 23:26 69.61994 -173.04610 0 ft 5453 kts 139°
2026-05-05 23:27 69.33169 -172.34405 0 ft 5452 kts 139°
2026-05-05 23:27 69.04321 -171.65103 0 ft 5453 kts 139°
2026-05-05 23:27 68.75507 -170.96788 0 ft 5453 kts 139°
2026-05-05 23:27 68.46653 -170.29248 0 ft 5452 kts 139°
2026-05-05 23:28 68.17821 -169.62607 0 ft 5452 kts 139°
2026-05-05 23:28 67.88827 -168.97314 0 ft 5452 kts 142°
2026-05-05 23:28 67.57078 -168.43082 0 ft 5450 kts 153°
2026-05-05 23:28 67.21921 -168.06233 0 ft 5448 kts 163°
2026-05-05 23:29 66.85399 -167.86666 0 ft 5420 kts 173°
2026-05-05 23:29 66.48331 -167.81495 0 ft 5280 kts 178°
2026-05-05 23:29 66.11476 -167.78229 0 ft 5315 kts 178°
2026-05-05 23:29 65.74700 -167.75015 0 ft 5251 kts 178°
2026-05-05 23:30 65.37451 -167.71807 0 ft 5413 kts 178°
2026-05-05 23:30 65.12016 -167.69678 0 ft 5420 kts 178°
2026-05-05 23:30 64.61730 -167.65560 0 ft 5491 kts 178°
2026-05-05 23:30 64.23494 -167.62479 0 ft 5501 kts 178°
2026-05-05 23:31 63.85514 -167.59456 0 ft 5318 kts 178°
2026-05-05 23:31 63.48143 -167.56538 0 ft 5429 kts 178°
2026-05-05 23:31 63.10248 -167.53754 0 ft 5450 kts 178°
2026-05-05 23:31 62.72327 -167.51258 0 ft 5452 kts 178°
2026-05-05 23:32 62.34401 -167.48995 0 ft 5452 kts 178°
2026-05-05 23:32 61.96459 -167.47716 0 ft 5454 kts 180°
2026-05-05 23:32 61.59231 -167.54940 0 ft 5450 kts 191°
2026-05-05 23:32 61.22520 -167.74530 0 ft 5451 kts 195°
2026-05-05 23:33 60.85898 -167.95419 0 ft 5451 kts 195°
2026-05-05 23:33 59.53079 -168.69569 0 ft 5451 kts 196°
2026-05-05 23:33 58.07145 -169.50049 0 ft 5449 kts 196°
2026-05-05 23:33 56.57549 -170.32351 0 ft 5633 kts 197°
2026-05-05 23:34 55.88501 -170.70376 0 ft 5619 kts 197°
2026-05-05 23:34 55.51078 -170.90900 0 ft 5639 kts 197°
2026-05-05 23:34 55.26184 -171.04467 0 ft 5655 kts 197°
2026-05-05 23:34 54.88633 -171.24784 0 ft 5626 kts 197°
2026-05-05 23:35 54.39153 -171.51269 0 ft 5640 kts 197°
2026-05-05 23:35 54.01611 -171.71147 0 ft 5644 kts 197°
2026-05-05 23:35 53.64498 -171.91878 0 ft 5568 kts 199°
2026-05-05 23:35 53.28758 -172.13769 0 ft 5419 kts 200°
2026-05-05 23:36 53.05224 -172.28110 0 ft 5428 kts 200°
2026-05-05 23:36 52.69848 -172.49526 0 ft 5405 kts 200°
2026-05-05 23:36 52.34588 -172.70701 0 ft 5378 kts 200°
2026-05-05 23:36 51.80905 -173.02609 0 ft 5370 kts 200°
2026-05-05 23:37 50.41402 -173.82744 0 ft 5315 kts 200°
2026-05-05 23:37 49.01047 -174.53779 98869 ft 5272 kts 197°
2026-05-05 23:37 47.59646 -175.11400 96025 ft 5254 kts 194°
2026-05-05 23:37 46.16659 -175.50464 93896 ft 5238 kts 188°
2026-05-05 23:38 44.72442 -175.28044 89238 ft 5150 kts 161°
2026-05-05 23:38 43.39336 -174.55522 92776 ft 5293 kts 157°
2026-05-05 23:38 42.15354 -173.79922 92319 ft 5295 kts 155°
2026-05-05 23:38 41.82125 -173.58509 92510 ft 5301 kts 154°
2026-05-05 23:39 41.16002 -173.14872 92281 ft 5299 kts 153°
2026-05-05 23:39 40.83380 -172.93380 92466 ft 5305 kts 153°
2026-05-05 23:39 40.49934 -172.71452 92235 ft 5303 kts 153°
2026-05-05 23:40 39.84319 -172.28751 92337 ft 5306 kts 153°
2026-05-05 23:40 39.51279 -172.07405 92213 ft 5300 kts 153°
2026-05-05 23:40 39.18263 -171.86175 92420 ft 5302 kts 153°
2026-05-05 23:41 38.85193 -171.65009 93021 ft 5317 kts 154°
2026-05-05 23:41 38.52084 -171.43914 93216 ft 5322 kts 154°
2026-05-05 23:41 38.18870 -171.22850 93782 ft 5333 kts 154°
2026-05-05 23:41 37.85646 -171.01877 94406 ft 5348 kts 154°
2026-05-05 23:42 37.52291 -170.80917 94635 ft 5368 kts 154°
2026-05-05 23:42 37.18655 -170.59877 94899 ft 5426 kts 154°
2026-05-05 23:42 36.84558 -170.38646 95360 ft 5512 kts 154°
2026-05-05 23:42 36.50259 -170.17170 95484 ft 5532 kts 153°
2026-05-05 23:43 36.16114 -169.94650 96165 ft 5572 kts 152°
2026-05-05 23:43 35.82232 -169.71008 97112 ft 5618 kts 150°
2026-05-05 23:43 35.48535 -169.46415 97567 ft 5642 kts 149°
2026-05-05 23:43 35.15102 -169.20969 98348 ft 5664 kts 148°
2026-05-05 23:44 34.81720 -168.95069 99584 ft 5698 kts 148°
2026-05-05 23:44 34.48228 -168.69136 0 ft 5716 kts 148°